This demonstration page uses our WeatherBlox Daily Observations layout. Learn more.

Left ArrowRight Arrow

Hourly Observations for June 25, 2016

Temp ( °F °C ) Dew Point ( °F °C ) Humidity (%) Winds ( mph kmh ) Pressure ( in mb ) Visibility ( mi km ) Precip ( " mm )
12:52 am 00:52 Clear 78 25.6 72 22.2 82 82 SSE 8 13 29.99 1016 10 16 0.00 0.00
1:52 am 01:52 Clear 76 24.4 71 21.7 85 85 SSE 7 11 30.00 1016 10 16 0.00 0.00
2:52 am 02:52 Clear 76 24.4 72 22.2 88 88 SE 8 13 30.00 1016 10 16 0.00 0.00
3:52 am 03:52 Partly Cloudy 76 24.4 71 21.7 85 85 SSE 7 11 29.99 1016 10 16 0.00 0.00
4:52 am 04:52 Mostly Cloudy 75 23.9 71 21.7 88 88 SSE 7 11 30.00 1016 10 16 0.00 0.00
5:52 am 05:52 Mostly Cloudy 75 23.9 71 21.7 88 88 SSE 9 15 30.01 1016 10 16 0.00 0.00
6:52 am 06:52 Mostly Cloudy 76 24.4 71 21.7 85 85 SSE 10 17 30.03 1017 10 16 0.00 0.00
7:52 am 07:52 Cloudy 76 24.4 71 21.7 85 85 SSE 10 17 30.04 1017 10 16 0.00 0.00
8:52 am 08:52 Mostly Cloudy 80 26.7 72 22.2 76 76 S 9 15 30.04 1017 10 16 0.00 0.00
9:52 am 09:52 Sunny 83 28.3 71 21.7 67 67 SSW 10 17 30.04 1017 10 16 0.00 0.00
10:52 am 10:52 Sunny 86 30 70 21.1 59 59 SSW 15 24 30.04 1017 10 16 0.00 0.00
11:52 am 11:52 Mostly Sunny 86 30 68 20 55 55 SSW 12 19 30.04 1017 10 16 0.00 0.00
12:52 pm 12:52 Mostly Cloudy 87 30.6 68 20 53 53 SSW 12 19 30.03 1017 10 16 0.00 0.00
1:52 pm 13:52 Mostly Cloudy 87 30.6 67 19.4 51 51 SSW 9 15 30.02 1017 10 16 0.00 0.00
2:52 pm 14:52 Partly Cloudy 89 31.7 67 19.4 48 48 SW 9 15 30.01 1016 10 16 0.00 0.00
3:52 pm 15:52 Mostly Sunny 90 32.2 65 18.3 44 44 SSW 10 17 29.99 1016 10 16 0.00 0.00
4:52 pm 16:52 Sunny 90 32.2 66 18.9 45 45 SSW 10 17 29.98 1015 10 16 0.00 0.00
5:52 pm 17:52 Partly Cloudy 89 31.7 67 19.4 48 48 SW 7 11 29.97 1015 10 16 0.00 0.00
6:52 pm 18:52 Mostly Sunny 88 31.1 65 18.3 46 46 SSW 12 19 29.97 1015 10 16 0.00 0.00
7:52 pm 19:52 Sunny 85 29.4 68 20 57 57 S 5 7 29.97 1015 10 16 0.00 0.00
8:52 pm 20:52 Clear 82 27.8 67 19.4 60 60 SSE 7 11 29.96 1015 10 16 0.00 0.00
9:52 pm 21:52 Clear 81 27.2 68 20 65 65 SSE 7 11 29.99 1016 10 16 0.00 0.00
10:52 pm 22:52 Mostly Clear 80 26.7 68 20 67 67 SSE 8 13 30.00 1016 10 16 0.00 0.00
11:52 pm 23:52 Clear 78 25.6 68 20 71 71 S 7 11 30.02 1017 10 16 0.00 0.00

Powered by AerisWeather